[[{"header":{"parameterUnit":"m.s-1","parameterCategory":1,"la1":30.2991,"la2":30.254,"lo1":-89.0895,"lo2":-89.0444,"dy":0.0017,"dx":0.0017,"nx":28,"ny":28,"refTime":"2025-05-21T09:00:00:Z","depth":0,"parameterNumber":2,"parameterNumberName":"U-component_of_WINDS"},"data":[0,0,0,0,0,0,0,0,0,0,0,0,0,0,0,0,0,0,0,0,0,0,0,0,0,0,0,0,0,0,0,0,0,0,0,0,0,0,0,0,0,0,0,0,0,0,0,0,0,0,0,0,0,0,0,0,0,0,4.1298,4.1299,0,4.1443,4.1445,4.1447,4.142,4.1417,4.1414,4.1412,4.1564,4.157,4.1577,0,0,0,0,0,0,0,0,0,0,0,0,0,4.0998,4.1004,4.1297,4.1299,4.1301,4.1443,4.1445,4.1447,4.142,4.1417,4.1414,4.1411,4.1562,4.157,4.1577,0,0,0,0,0,0,0,0,0,0,0,0,0,4.1134,4.1005,4.1297,4.1305,4.1307,4.1443,4.1445,4.1448,4.1421,4.1417,4.1413,4.1409,4.1559,4.1569,4.1578,4.1717,0,0,4.1608,4.1612,0,0,0,0,0,0,0,0,4.1127,4.1145,4.1302,4.1304,4.1307,4.1409,4.1395,4.1538,4.1422,4.1378,4.1412,4.1407,4.1516,4.1529,4.1565,4.1724,4.173,4.1609,4.1615,4.1619,4.1622,0,0,0,0,0,0,0,4.1117,4.1139,4.1355,4.1304,4.1307,4.1302,4.1317,4.1422,4.1467,4.1381,4.138,4.1397,4.1517,4.1556,4.1568,4.1733,4.1609,4.1617,4.1623,4.1627,4.2012,4.2017,0,0,0,0,0,0,4.1105,4.1131,4.1351,4.1359,4.1205,4.131,4.1327,4.138,4.1466,4.1475,4.14,4.1395,4.1541,4.1557,4.1574,4.1741,4.1619,4.1628,4.1634,4.2008,4.2013,4.2018,0,0,0,0,0,0,4.1099,4.1125,4.1345,4.1245,4.1273,4.1319,4.138,4.1385,4.1424,4.148,4.1488,4.1432,4.1539,4.156,4.1681,4.1746,4.1632,4.1641,4.2003,4.201,4.2016,4.2077,0,0,0,0,0,0,4.109,4.1123,4.1175,4.1246,4.1278,4.1449,4.1384,4.1391,4.1441,4.1436,4.1512,4.1521,4.1537,4.1667,4.1691,4.1757,4.1649,4.1997,4.2006,4.2014,4.2069,4.2085,4.2098,0,0,0,0,0,4.108,4.1187,4.1178,4.1204,4.1344,4.1453,4.1471,4.1487,4.1446,4.15,4.1536,4.1518,4.1735,4.1679,4.1706,4.1777,4.1993,4.2004,4.2013,4.2063,4.2082,4.2098,0,0,0,0,0,0,4.1123,4.1197,4.1187,4.1321,4.1381,4.1448,4.1516,4.1506,4.158,4.1572,4.159,4.1607,4.173,4.1766,4.1702,4.1915,4.1859,4.1874,4.1887,4.1906,4.192,4.1909,4.1657,0,0,0,0,0,4.1148,4.1229,4.1289,4.1402,4.1432,4.1469,4.1517,4.1524,4.1587,4.1612,4.1657,4.172,4.1802,4.1856,4.1935,4.2075,4.2091,4.2136,4.215,4.2162,4.2175,4.2252,4.2273,4.2051,4.2051,4.205,0,0,4.1201,4.1251,4.1301,4.1412,4.1459,4.1543,4.149,4.1582,4.1645,4.1627,4.1743,4.1779,4.185,4.1981,4.2041,4.2014,4.224,4.2175,4.2183,4.2191,4.2264,4.2285,4.2304,4.2057,4.2056,4.2055,0,0,4.134,4.1386,4.1484,4.1532,4.1604,4.1628,4.1652,4.1721,4.1744,4.1861,4.1849,4.1925,4.2066,4.2117,4.2161,4.232,4.2307,4.2346,4.242,4.2495,4.2513,4.2528,4.2585,4.2605,4.2359,4.2359,4.2359,0,4.1396,4.1522,4.1536,4.1629,4.1678,4.1665,4.1765,4.1811,4.1906,4.194,4.1909,4.2086,4.2133,4.2275,4.2314,4.2351,4.2379,4.2337,4.2509,4.2525,4.2539,4.2593,4.2615,4.2363,4.2363,4.2362,4.2362,0,4.1588,4.1676,4.1747,4.1837,4.1894,4.1991,4.202,4.2076,4.2079,4.2106,4.2226,4.2282,4.2372,4.2406,4.241,4.255,4.2531,4.2504,4.2448,4.2564,4.2616,4.2636,4.2369,4.2367,4.2366,4.2365,0,0,4.1758,4.1855,4.1881,4.1922,4.2001,4.2069,4.2165,4.2252,4.23,4.2366,4.2447,4.2567,4.2542,4.2593,4.2602,4.2667,4.2789,4.2632,4.2634,4.2659,4.2948,4.2967,4.2991,4.2781,4.2785,4.2789,4.2941,0,4.1905,4.2072,4.2088,4.2239,4.232,4.2309,4.2393,4.245,4.2479,4.2552,4.2584,4.2668,4.263,4.266,4.2725,4.2761,4.2847,4.275,4.2857,4.2861,4.2839,4.3017,4.3038,4.318,4.2962,4.2965,4.2967,0,4.2097,4.2168,4.2327,4.2394,4.2429,4.2503,4.2584,4.2655,4.272,4.2736,4.2793,4.2793,4.2893,4.2833,4.297,4.2903,4.2948,4.2973,4.2979,4.2989,4.2921,4.3033,4.3226,4.3247,4.2999,4.2997,4.2994,0,4.2205,4.234,4.2453,4.2488,4.2569,4.2622,4.2659,4.272,4.2771,4.2843,4.2876,4.2958,4.3003,4.3067,4.309,4.3044,4.3227,4.3169,4.3243,4.3243,4.3282,4.3279,4.3485,4.3312,4.3311,4.3311,4.331,0,4.2367,4.2465,4.2502,4.2571,4.2681,4.2698,4.2806,4.284,4.2895,4.2971,4.2967,4.3038,4.3064,4.314,4.3159,4.327,4.3291,4.3307,4.331,4.3307,4.3305,4.3336,4.3327,4.3317,4.3315,4.3314,4.3313,0,4.2506,4.2535,4.2657,4.2724,4.2743,4.282,4.2878,4.2945,4.2972,4.3068,4.3092,4.3135,4.3225,4.3254,4.3362,4.3375,4.3504,4.35,4.3482,4.3482,4.3555,4.3548,4.3788,4.382,4.3626,4.3628,4.363,0,4.2607,4.2681,4.2756,4.2806,4.2845,4.2926,4.2978,4.2998,4.3053,4.3133,4.3191,4.3279,4.3351,4.3494,4.3536,4.3619,4.3616,4.3695,4.3629,4.3623,4.3617,4.3612,4.362,4.3707,4.3709,4.3711,4.3712,0,4.2783,4.2793,4.2868,4.2949,4.3011,4.3075,4.3137,4.3179,4.3208,4.327,4.3361,4.3417,4.3527,4.3615,4.37,4.3738,4.3731,4.3732,4.3754,4.3751,4.3737,4.3745,4.3515,4.3727,4.3725,4.3724,4.3723,4.3723,4.2906,4.2972,4.3034,4.3118,4.3167,4.3225,4.3291,4.3326,4.3402,4.3493,4.3501,4.3599,4.3663,4.3775,4.3818,4.3896,4.3873,4.3905,4.3913,4.392,4.3926,4.3725,4.3911,4.3911,4.3911,4.391,4.391,0,4.3081,4.3121,4.3198,4.3284,4.335,4.3337,4.3405,4.3461,4.3547,4.3607,4.3678,4.3782,4.3868,4.3916,4.4001,4.4054,4.4053,4.4076,4.4072,4.4081,4.3941,4.3913,4.4076,4.4075,4.4075,4.4075,4.4075,4.4075,4.318,4.3291,4.3309,4.3444,4.3483,4.3579,4.3619,4.3673,4.372,4.3837,4.3908,4.3938,4.3994,4.4083,4.4161,4.4173,4.4205,4.423,4.424,4.4108,4.4091,4.4075,4.4049,4.4237,4.4237,4.4373,4.4375,4.4376]},{"header":{"parameterUnit":"m.s-1","parameterCategory":1,"la1":30.2991,"la2":30.254,"lo1":-89.0895,"lo2":-89.0444,"dy":0.0017,"dx":0.0017,"nx":28,"ny":28,"refTime":"2025-05-21T09:00:00:Z","depth":0,"parameterNumber":3,"parameterNumberName":"V-component_of_WINDS"},"data":[0,0,0,0,0,0,0,0,0,0,0,0,0,0,0,0,0,0,0,0,0,0,0,0,0,0,0,0,0,0,0,0,0,0,0,0,0,0,0,0,0,0,0,0,0,0,0,0,0,0,0,0,0,0,0,0,0,0,0.2585,0.2586,0,0.2616,0.2617,0.2617,0.2599,0.2598,0.2597,0.2597,0.2629,0.2631,0.2633,0,0,0,0,0,0,0,0,0,0,0,0,0,0.2511,0.2513,0.2585,0.2586,0.2586,0.2616,0.2617,0.2617,0.2599,0.2598,0.2597,0.2596,0.2629,0.2631,0.2633,0,0,0,0,0,0,0,0,0,0,0,0,0,0.2543,0.2513,0.2585,0.2581,0.2581,0.2616,0.2617,0.2617,0.26,0.2598,0.2597,0.2596,0.2628,0.2631,0.2633,0.2675,0,0,0.2641,0.2642,0,0,0,0,0,0,0,0,0.2541,0.2546,0.2581,0.2581,0.2581,0.2603,0.2603,0.2637,0.26,0.2592,0.2597,0.2595,0.2622,0.2625,0.2633,0.2677,0.2678,0.2641,0.2643,0.2644,0.2644,0,0,0,0,0,0,0,0.2539,0.2544,0.2598,0.2582,0.2582,0.2577,0.258,0.2609,0.2614,0.2593,0.2592,0.2596,0.2621,0.2631,0.2634,0.2679,0.2641,0.2643,0.2645,0.2646,0.2757,0.2759,0,0,0,0,0,0,0.2537,0.2543,0.2597,0.2599,0.2557,0.258,0.2583,0.2597,0.2614,0.2615,0.2597,0.2595,0.2627,0.2631,0.2635,0.2685,0.2644,0.2646,0.2648,0.2756,0.2758,0.2759,0,0,0,0,0,0,0.2535,0.2542,0.2595,0.257,0.2577,0.2583,0.2598,0.2598,0.2608,0.2616,0.2617,0.2606,0.2626,0.2631,0.2665,0.2686,0.2647,0.265,0.2754,0.2757,0.2759,0.2787,0,0,0,0,0,0,0.2533,0.2542,0.2558,0.2571,0.2578,0.2625,0.2599,0.26,0.2612,0.261,0.2625,0.2626,0.2626,0.2661,0.2668,0.2689,0.2652,0.2753,0.2755,0.2758,0.2784,0.2789,0.2794,0,0,0,0,0,0.2531,0.2565,0.2559,0.2565,0.2598,0.2626,0.2631,0.2629,0.2614,0.263,0.2636,0.2626,0.2683,0.2665,0.2672,0.2694,0.2751,0.2755,0.2758,0.2781,0.2788,0.2794,0,0,0,0,0,0,0.2554,0.2566,0.256,0.2599,0.2612,0.2623,0.2644,0.2636,0.2654,0.2651,0.2649,0.2652,0.2687,0.2694,0.2674,0.2736,0.2715,0.2719,0.273,0.2737,0.2742,0.274,0.2654,0,0,0,0,0,0.2564,0.2586,0.2595,0.2628,0.2635,0.2638,0.265,0.2648,0.2661,0.2667,0.2675,0.2688,0.2709,0.2723,0.2743,0.2784,0.2787,0.2803,0.2808,0.2812,0.2817,0.2839,0.2846,0.277,0.277,0.277,0,0,0.2584,0.2593,0.2607,0.2633,0.2643,0.2666,0.2643,0.2668,0.2685,0.2671,0.2703,0.2709,0.2724,0.2762,0.2779,0.2769,0.2838,0.2816,0.282,0.2822,0.2843,0.2851,0.2857,0.2772,0.2772,0.2771,0,0,0.2633,0.2642,0.2671,0.2681,0.2696,0.2697,0.2704,0.2717,0.272,0.2752,0.2742,0.2762,0.2798,0.2809,0.282,0.2871,0.2863,0.2878,0.2906,0.2927,0.2933,0.2939,0.2958,0.2965,0.2882,0.2882,0.2882,0,0.2657,0.2691,0.2687,0.2713,0.2724,0.2711,0.2741,0.2751,0.2771,0.278,0.2768,0.2812,0.2821,0.2861,0.2874,0.2882,0.2891,0.2877,0.2933,0.2938,0.2943,0.2961,0.2968,0.2884,0.2884,0.2883,0.2883,0,0.2719,0.2742,0.2764,0.2784,0.2798,0.2825,0.2825,0.284,0.2836,0.2839,0.2871,0.2882,0.2903,0.2912,0.2909,0.2952,0.2945,0.2933,0.2912,0.2952,0.2969,0.2976,0.2886,0.2886,0.2885,0.2885,0,0,0.2785,0.2802,0.281,0.2818,0.2833,0.2851,0.2878,0.2898,0.2911,0.2925,0.2948,0.2978,0.2966,0.2978,0.2975,0.2994,0.3035,0.298,0.298,0.299,0.3084,0.3094,0.3102,0.3029,0.303,0.3031,0.3083,0,0.2836,0.2882,0.2879,0.2923,0.2944,0.2932,0.2955,0.2966,0.297,0.2988,0.2992,0.3013,0.2996,0.3003,0.3021,0.3026,0.3054,0.3022,0.3051,0.3052,0.3049,0.3111,0.3121,0.3169,0.3089,0.309,0.3091,0,0.2901,0.2917,0.2963,0.2974,0.2983,0.3004,0.3022,0.304,0.3053,0.3053,0.3066,0.306,0.3087,0.3064,0.3101,0.308,0.3091,0.3095,0.3096,0.31,0.3075,0.3117,0.3185,0.3192,0.3102,0.3101,0.31,0,0.2946,0.2978,0.301,0.3018,0.3031,0.3046,0.3053,0.3064,0.3076,0.3092,0.31,0.3119,0.313,0.3144,0.3144,0.3127,0.3181,0.3158,0.3184,0.3184,0.3197,0.3196,0.3268,0.3202,0.3202,0.3202,0.3202,0,0.3003,0.3032,0.303,0.305,0.3081,0.3077,0.3109,0.3113,0.3123,0.3144,0.3134,0.3153,0.315,0.317,0.3169,0.32,0.3205,0.3207,0.3206,0.3208,0.3208,0.3217,0.3214,0.3204,0.3203,0.3203,0.3203,0,0.3059,0.3059,0.3093,0.3102,0.3105,0.3128,0.3137,0.3155,0.3157,0.3183,0.3188,0.3191,0.3214,0.3214,0.3239,0.3239,0.3277,0.3272,0.3273,0.3273,0.3298,0.3296,0.3379,0.339,0.3315,0.3316,0.3317,0,0.3096,0.3118,0.3129,0.3142,0.3149,0.317,0.3182,0.3178,0.3192,0.3207,0.3224,0.3245,0.3262,0.3298,0.3303,0.3322,0.3319,0.3346,0.3322,0.3323,0.332,0.332,0.3322,0.3352,0.3353,0.3353,0.3354,0,0.3162,0.3161,0.3179,0.3197,0.3212,0.3226,0.3239,0.325,0.3248,0.3263,0.3286,0.3299,0.3324,0.3346,0.3364,0.3371,0.3362,0.3361,0.3368,0.3371,0.3371,0.3372,0.3287,0.336,0.3359,0.3359,0.3358,0.3358,0.321,0.3229,0.324,0.3261,0.327,0.3282,0.33,0.3303,0.3322,0.3342,0.3339,0.3364,0.3375,0.3399,0.3407,0.3427,0.3418,0.3428,0.343,0.3433,0.3436,0.3367,0.343,0.343,0.343,0.343,0.343,0,0.3277,0.3283,0.3302,0.332,0.3336,0.3325,0.3339,0.3353,0.3376,0.3387,0.3403,0.3429,0.3449,0.3455,0.3475,0.3489,0.3486,0.3495,0.3494,0.3496,0.3443,0.3436,0.3497,0.3497,0.3497,0.3497,0.3497,0.3497,0.3313,0.3345,0.3344,0.338,0.3386,0.341,0.3419,0.343,0.3439,0.3468,0.3485,0.3488,0.3497,0.3517,0.3536,0.3537,0.3545,0.3556,0.3555,0.3506,0.35,0.3493,0.3486,0.3557,0.3557,0.3606,0.3607,0.3607]}]]